Year,Month,Day,Hour,Minute,Value (Times are PST for windgust in km/hr)
2017,08,13,00,00,3.20
2017,08,13,00,01,3.20
2017,08,13,00,02,3.20
2017,08,13,00,03,6.40
2017,08,13,00,04,4.80
2017,08,13,00,05,6.40
2017,08,13,00,06,4.80
2017,08,13,00,07,8.10
2017,08,13,00,08,6.40
2017,08,13,00,09,4.80
2017,08,13,00,10,3.20
2017,08,13,00,11,3.20
2017,08,13,00,12,4.80
2017,08,13,00,13,3.20
2017,08,13,00,14,4.80
2017,08,13,00,15,4.80
2017,08,13,00,16,9.60
2017,08,13,00,17,4.80
2017,08,13,00,18,6.40
2017,08,13,00,19,6.40
2017,08,13,00,20,4.80
2017,08,13,00,21,3.20
2017,08,13,00,22,4.80
2017,08,13,00,23,8.10
2017,08,13,00,24,6.40
2017,08,13,00,25,3.20
2017,08,13,00,26,4.80
2017,08,13,00,27,4.80
2017,08,13,00,28,8.10
2017,08,13,00,29,4.80
2017,08,13,00,30,6.40
2017,08,13,00,31,4.80
2017,08,13,00,32,6.40
2017,08,13,00,33,4.80
2017,08,13,00,34,4.80
2017,08,13,00,35,4.80
2017,08,13,00,36,4.80
2017,08,13,00,37,3.20
2017,08,13,00,38,6.40
2017,08,13,00,39,6.40
2017,08,13,00,40,3.20
2017,08,13,00,41,3.20
2017,08,13,00,42,6.40
2017,08,13,00,43,1.60
2017,08,13,00,44,4.80
2017,08,13,00,45,3.20
2017,08,13,00,46,3.20
2017,08,13,00,47,1.60
2017,08,13,00,48,3.20
2017,08,13,00,49,3.20
2017,08,13,00,50,4.80
2017,08,13,00,51,4.80
2017,08,13,00,52,3.20
2017,08,13,00,53,4.80
2017,08,13,00,54,4.80
2017,08,13,00,55,1.60
2017,08,13,00,56,3.20
2017,08,13,00,57,3.20
2017,08,13,00,58,3.20
2017,08,13,00,59,1.60
2017,08,13,01,00,1.60
2017,08,13,01,01,3.20
2017,08,13,01,02,4.80
2017,08,13,01,03,3.20
2017,08,13,01,04,3.20
2017,08,13,01,05,3.20
2017,08,13,01,06,3.20
2017,08,13,01,07,4.80
2017,08,13,01,08,4.80
2017,08,13,01,09,3.20
2017,08,13,01,10,3.20
2017,08,13,01,11,3.20
2017,08,13,01,12,4.80
2017,08,13,01,13,4.80
2017,08,13,01,14,4.80
2017,08,13,01,15,3.20
2017,08,13,01,16,3.20
2017,08,13,01,17,4.80
2017,08,13,01,18,4.80
2017,08,13,01,19,4.80
2017,08,13,01,20,3.20
2017,08,13,01,21,3.20
2017,08,13,01,22,3.20
2017,08,13,01,23,3.20
2017,08,13,01,24,3.20
2017,08,13,01,25,3.20
2017,08,13,01,26,3.20
2017,08,13,01,27,4.80
2017,08,13,01,28,6.40
2017,08,13,01,29,4.80
2017,08,13,01,30,6.40
2017,08,13,01,31,4.80
2017,08,13,01,32,4.80
2017,08,13,01,33,3.20
2017,08,13,01,34,6.40
2017,08,13,01,35,6.40
2017,08,13,01,36,4.80
2017,08,13,01,37,4.80
2017,08,13,01,38,4.80
2017,08,13,01,39,4.80
2017,08,13,01,40,8.10
2017,08,13,01,41,6.40
2017,08,13,01,42,4.80
2017,08,13,01,43,3.20
2017,08,13,01,44,4.80
2017,08,13,01,45,4.80
2017,08,13,01,46,4.80
2017,08,13,01,47,3.20
2017,08,13,01,48,4.80
2017,08,13,01,49,6.40
2017,08,13,01,50,6.40
2017,08,13,01,51,3.20
2017,08,13,01,52,4.80
2017,08,13,01,53,4.80
2017,08,13,01,54,4.80
2017,08,13,01,55,4.80
2017,08,13,01,56,4.80
2017,08,13,01,57,3.20
2017,08,13,01,58,3.20
2017,08,13,01,59,3.20
2017,08,13,02,00,6.40
2017,08,13,02,01,3.20
2017,08,13,02,02,6.40
2017,08,13,02,03,4.80
2017,08,13,02,04,3.20
2017,08,13,02,05,4.80
2017,08,13,02,06,4.80
2017,08,13,02,07,1.60
2017,08,13,02,08,1.60
2017,08,13,02,09,3.20
2017,08,13,02,10,1.60
2017,08,13,02,11,1.60
2017,08,13,02,12,1.60
2017,08,13,02,13,4.80
2017,08,13,02,14,4.80
2017,08,13,02,15,3.20
2017,08,13,02,16,4.80
2017,08,13,02,17,3.20
2017,08,13,02,18,3.20
2017,08,13,02,19,3.20
2017,08,13,02,20,1.60
2017,08,13,02,21,1.60
2017,08,13,02,22,3.20
2017,08,13,02,23,3.20
2017,08,13,02,24,3.20
2017,08,13,02,25,1.60
2017,08,13,02,26,3.20
2017,08,13,02,27,3.20
2017,08,13,02,28,1.60
2017,08,13,02,29,1.60
2017,08,13,02,30,1.60
2017,08,13,02,31,3.20
2017,08,13,02,32,3.20
2017,08,13,02,33,1.60
2017,08,13,02,34,1.60
2017,08,13,02,35,3.20
2017,08,13,02,36,3.20
2017,08,13,02,37,1.60
2017,08,13,02,38,1.60
2017,08,13,02,39,3.20
2017,08,13,02,40,1.60
2017,08,13,02,41,1.60
2017,08,13,02,42,1.60
2017,08,13,02,44,1.60
2017,08,13,02,45,1.60
2017,08,13,02,48,1.60
2017,08,13,02,49,3.20
2017,08,13,02,50,3.20
2017,08,13,02,51,1.60
2017,08,13,02,52,1.60
2017,08,13,02,53,3.20
2017,08,13,02,54,3.20
2017,08,13,02,55,3.20
2017,08,13,02,56,1.60
2017,08,13,02,57,3.20
2017,08,13,02,58,4.80
2017,08,13,02,59,3.20
2017,08,13,03,00,1.60
2017,08,13,03,01,1.60
2017,08,13,03,02,1.60
2017,08,13,03,03,1.60
2017,08,13,03,04,1.60
2017,08,13,03,05,3.20
2017,08,13,03,06,4.80
2017,08,13,03,07,1.60
2017,08,13,03,08,1.60
2017,08,13,03,09,1.60
2017,08,13,03,10,1.60
2017,08,13,03,11,1.60
2017,08,13,03,13,3.20
2017,08,13,03,14,4.80
2017,08,13,03,15,4.80
2017,08,13,03,16,4.80
2017,08,13,03,17,4.80
2017,08,13,03,18,3.20
2017,08,13,03,19,4.80
2017,08,13,03,20,1.60
2017,08,13,03,21,3.20
2017,08,13,03,22,3.20
2017,08,13,03,23,3.20
2017,08,13,03,24,4.80
2017,08,13,03,25,6.40
2017,08,13,03,26,6.40
2017,08,13,03,27,4.80
2017,08,13,03,28,3.20
2017,08,13,03,29,3.20
2017,08,13,03,30,6.40
2017,08,13,03,31,4.80
2017,08,13,03,32,4.80
2017,08,13,03,33,4.80
2017,08,13,03,34,3.20
2017,08,13,03,35,3.20
2017,08,13,03,36,4.80
2017,08,13,03,37,4.80
2017,08,13,03,38,1.60
2017,08,13,03,39,3.20
2017,08,13,03,40,3.20
2017,08,13,03,41,6.40
2017,08,13,03,42,4.80
2017,08,13,03,43,4.80
2017,08,13,03,44,3.20
2017,08,13,03,45,4.80
2017,08,13,03,46,8.10
2017,08,13,03,47,3.20
2017,08,13,03,48,4.80
2017,08,13,03,49,4.80
2017,08,13,03,50,6.40
2017,08,13,03,51,4.80
2017,08,13,03,52,8.10
2017,08,13,03,53,8.10
2017,08,13,03,54,8.10
2017,08,13,03,55,3.20
2017,08,13,03,56,3.20
2017,08,13,03,57,4.80
2017,08,13,03,58,1.60
2017,08,13,04,01,3.20
2017,08,13,04,02,4.80
2017,08,13,04,03,8.10
2017,08,13,04,04,4.80
2017,08,13,04,05,3.20
2017,08,13,04,06,1.60
2017,08,13,04,07,1.60
2017,08,13,04,08,4.80
2017,08,13,04,09,4.80
2017,08,13,04,10,3.20
2017,08,13,04,11,1.60
2017,08,13,04,12,4.80
2017,08,13,04,13,3.20
2017,08,13,04,14,3.20
2017,08,13,04,15,3.20
2017,08,13,04,16,3.20
2017,08,13,04,17,1.60
2017,08,13,04,18,1.60
2017,08,13,04,19,1.60
2017,08,13,04,20,1.60
2017,08,13,04,21,3.20
2017,08,13,04,22,6.40
2017,08,13,04,23,8.10
2017,08,13,04,24,8.10
2017,08,13,04,25,8.10
2017,08,13,04,26,4.80
2017,08,13,04,27,4.80
2017,08,13,04,28,3.20
2017,08,13,04,29,3.20
2017,08,13,04,30,1.60
2017,08,13,04,31,4.80
2017,08,13,04,32,4.80
2017,08,13,04,33,8.10
2017,08,13,04,34,12.90
2017,08,13,04,35,9.60
2017,08,13,04,36,11.30
2017,08,13,04,37,4.80
2017,08,13,04,38,3.20
2017,08,13,04,39,11.30
2017,08,13,04,40,9.60
2017,08,13,04,41,9.60
2017,08,13,04,42,3.20
2017,08,13,04,43,4.80
2017,08,13,04,44,8.10
2017,08,13,04,45,8.10
2017,08,13,04,46,4.80
2017,08,13,04,47,8.10
2017,08,13,04,48,4.80
2017,08,13,04,49,8.10
2017,08,13,04,50,8.10
2017,08,13,04,51,8.10
2017,08,13,04,52,8.10
2017,08,13,04,53,8.10
2017,08,13,04,54,8.10
2017,08,13,04,55,4.80
2017,08,13,04,56,6.40
2017,08,13,04,57,4.80
2017,08,13,04,58,4.80
2017,08,13,04,59,4.80
2017,08,13,05,00,4.80
2017,08,13,05,01,4.80
2017,08,13,05,02,6.40
2017,08,13,05,03,8.10
2017,08,13,05,04,3.20
2017,08,13,05,05,6.40
2017,08,13,05,06,6.40
2017,08,13,05,07,4.80
2017,08,13,05,08,4.80
2017,08,13,05,09,8.10
2017,08,13,05,10,6.40
2017,08,13,05,11,4.80
2017,08,13,05,12,4.80
2017,08,13,05,13,4.80
2017,08,13,05,14,8.10
2017,08,13,05,15,4.80
2017,08,13,05,16,6.40
2017,08,13,05,17,4.80
2017,08,13,05,18,6.40
2017,08,13,05,19,8.10
2017,08,13,05,20,6.40
2017,08,13,05,21,6.40
2017,08,13,05,22,4.80
2017,08,13,05,23,6.40
2017,08,13,05,24,4.80
2017,08,13,05,25,3.20
2017,08,13,05,26,1.60
2017,08,13,05,27,4.80
2017,08,13,05,28,4.80
2017,08,13,05,29,4.80
2017,08,13,05,30,8.10
2017,08,13,05,31,6.40
2017,08,13,05,32,4.80
2017,08,13,05,33,3.20
2017,08,13,05,34,3.20
2017,08,13,05,35,3.20
2017,08,13,05,36,3.20
2017,08,13,05,37,6.40
2017,08,13,05,38,4.80
2017,08,13,05,39,6.40
2017,08,13,05,40,4.80
2017,08,13,05,41,6.40
2017,08,13,05,42,6.40
2017,08,13,05,43,3.20
2017,08,13,05,44,4.80
2017,08,13,05,45,6.40
2017,08,13,05,46,6.40
2017,08,13,05,47,4.80
2017,08,13,05,48,4.80
2017,08,13,05,49,4.80
2017,08,13,05,50,4.80
2017,08,13,05,51,4.80
2017,08,13,05,52,4.80
2017,08,13,05,53,3.20
2017,08,13,05,54,4.80
2017,08,13,05,55,4.80
2017,08,13,05,56,4.80
2017,08,13,05,57,6.40
2017,08,13,05,58,8.10
2017,08,13,05,59,4.80
2017,08,13,06,00,4.80
2017,08,13,06,01,8.10
2017,08,13,06,02,9.60
2017,08,13,06,03,9.60
2017,08,13,06,04,6.40
2017,08,13,06,05,8.10
2017,08,13,06,06,6.40
2017,08,13,06,07,9.60
2017,08,13,06,08,6.40
2017,08,13,06,09,6.40
2017,08,13,06,10,8.10
2017,08,13,06,11,8.10
2017,08,13,06,12,8.10
2017,08,13,06,13,4.80
2017,08,13,06,14,4.80
2017,08,13,06,15,6.40
2017,08,13,06,16,6.40
2017,08,13,06,17,4.80
2017,08,13,06,18,4.80
2017,08,13,06,19,4.80
2017,08,13,06,20,4.80
2017,08,13,06,21,4.80
2017,08,13,06,22,4.80
2017,08,13,06,23,6.40
2017,08,13,06,24,6.40
2017,08,13,06,25,11.30
2017,08,13,06,26,9.60
2017,08,13,06,27,9.60
2017,08,13,06,28,11.30
2017,08,13,06,29,11.30
2017,08,13,06,30,8.10
2017,08,13,06,31,8.10
2017,08,13,06,32,8.10
2017,08,13,06,33,8.10
2017,08,13,06,34,6.40
2017,08,13,06,35,11.30
2017,08,13,06,36,14.50
2017,08,13,06,37,14.50
2017,08,13,06,38,9.60
2017,08,13,06,39,16.10
2017,08,13,06,40,8.10
2017,08,13,06,41,11.30
2017,08,13,06,42,12.90
2017,08,13,06,43,14.50
2017,08,13,06,44,11.30
2017,08,13,06,45,8.10
2017,08,13,06,46,11.30
2017,08,13,06,47,9.60
2017,08,13,06,48,9.60
2017,08,13,06,49,9.60
2017,08,13,06,50,9.60
2017,08,13,06,51,9.60
2017,08,13,06,52,9.60
2017,08,13,06,53,8.10
2017,08,13,06,54,11.30
2017,08,13,06,55,11.30
2017,08,13,06,56,4.80
2017,08,13,06,57,12.90
2017,08,13,06,58,12.90
2017,08,13,06,59,9.60
2017,08,13,07,00,4.80
2017,08,13,07,01,6.40
2017,08,13,07,02,12.90
2017,08,13,07,03,8.10
2017,08,13,07,04,11.30
2017,08,13,07,05,8.10
2017,08,13,07,06,6.40
2017,08,13,07,07,8.10
2017,08,13,07,08,8.10
2017,08,13,07,09,4.80
2017,08,13,07,10,9.60
2017,08,13,07,11,8.10
2017,08,13,07,12,6.40
2017,08,13,07,13,9.60
2017,08,13,07,14,9.60
2017,08,13,07,15,9.60
2017,08,13,07,16,12.90
2017,08,13,07,17,11.30
2017,08,13,07,18,9.60
2017,08,13,07,19,6.40
2017,08,13,07,20,4.80
2017,08,13,07,21,6.40
2017,08,13,07,22,8.10
2017,08,13,07,23,4.80
2017,08,13,07,24,8.10
2017,08,13,07,25,8.10
2017,08,13,07,26,4.80
2017,08,13,07,27,8.10
2017,08,13,07,28,6.40
2017,08,13,07,29,9.60
2017,08,13,07,30,9.60
2017,08,13,07,31,9.60
2017,08,13,07,32,4.80
2017,08,13,07,33,9.60
2017,08,13,07,34,9.60
2017,08,13,07,35,11.30
2017,08,13,07,36,11.30
2017,08,13,07,37,8.10
2017,08,13,07,38,6.40
2017,08,13,07,39,8.10
2017,08,13,07,40,14.50
2017,08,13,07,41,12.90
2017,08,13,07,42,6.40
2017,08,13,07,43,11.30
2017,08,13,07,44,8.10
2017,08,13,07,45,14.50
2017,08,13,07,46,8.10
2017,08,13,07,47,11.30
2017,08,13,07,48,17.70
2017,08,13,07,49,9.60
2017,08,13,07,50,9.60
2017,08,13,07,51,9.60
2017,08,13,07,52,9.60
2017,08,13,07,53,9.60
2017,08,13,07,54,11.30
2017,08,13,07,55,12.90
2017,08,13,07,56,14.50
2017,08,13,07,57,14.50
2017,08,13,07,58,12.90
2017,08,13,07,59,12.90
2017,08,13,08,00,11.30
2017,08,13,08,01,14.50
2017,08,13,08,02,16.10
2017,08,13,08,03,12.90
2017,08,13,08,04,17.70
2017,08,13,08,05,11.30
2017,08,13,08,06,11.30
2017,08,13,08,07,4.80
2017,08,13,08,08,4.80
2017,08,13,08,09,9.60
2017,08,13,08,10,12.90
2017,08,13,08,11,9.60
2017,08,13,08,12,8.10
2017,08,13,08,13,11.30
2017,08,13,08,14,8.10
2017,08,13,08,15,12.90
2017,08,13,08,16,6.40
2017,08,13,08,17,12.90
2017,08,13,08,18,11.30
2017,08,13,08,19,11.30
2017,08,13,08,20,11.30
2017,08,13,08,21,9.60
2017,08,13,08,22,12.90
2017,08,13,08,23,9.60
2017,08,13,08,24,14.50
2017,08,13,08,25,9.60
2017,08,13,08,26,11.30
2017,08,13,08,27,8.10
2017,08,13,08,28,8.10
2017,08,13,08,29,8.10
2017,08,13,08,30,12.90
2017,08,13,08,31,14.50
2017,08,13,08,32,9.60
2017,08,13,08,33,11.30
2017,08,13,08,34,11.30
2017,08,13,08,35,12.90
2017,08,13,08,36,9.60
2017,08,13,08,37,6.40
2017,08,13,08,38,12.90
2017,08,13,08,39,12.90
2017,08,13,08,40,12.90
2017,08,13,08,41,9.60
2017,08,13,08,42,9.60
2017,08,13,08,43,8.10
2017,08,13,08,44,11.30
2017,08,13,08,45,12.90
2017,08,13,08,46,9.60
2017,08,13,08,47,9.60
2017,08,13,08,48,11.30
2017,08,13,08,49,11.30
2017,08,13,08,50,14.50
2017,08,13,08,51,8.10
2017,08,13,08,52,9.60
2017,08,13,08,53,11.30
2017,08,13,08,54,12.90
2017,08,13,08,55,9.60
2017,08,13,08,56,9.60
2017,08,13,08,57,14.50
2017,08,13,08,58,20.90
2017,08,13,08,59,27.40
2017,08,13,09,00,22.50
2017,08,13,09,01,14.50
2017,08,13,09,02,20.90
2017,08,13,09,03,19.30
2017,08,13,09,04,19.30
2017,08,13,09,05,16.10
2017,08,13,09,06,19.30
2017,08,13,09,07,20.90
2017,08,13,09,08,24.20
2017,08,13,09,09,17.70
2017,08,13,09,10,17.70
2017,08,13,09,11,22.50
2017,08,13,09,12,19.30
2017,08,13,09,13,20.90
2017,08,13,09,14,22.50
2017,08,13,09,15,32.20
2017,08,13,09,16,19.30
2017,08,13,09,17,24.20
2017,08,13,09,18,24.20
2017,08,13,09,19,29.00
2017,08,13,09,20,19.30
2017,08,13,09,21,22.50
2017,08,13,09,22,24.20
2017,08,13,09,23,25.70
2017,08,13,09,24,25.70
2017,08,13,09,25,24.20
2017,08,13,09,26,17.70
2017,08,13,09,27,29.00
2017,08,13,09,28,24.20
2017,08,13,09,29,27.40
2017,08,13,09,30,24.20
2017,08,13,09,31,16.10
2017,08,13,09,32,19.30
2017,08,13,09,33,24.20
2017,08,13,09,34,25.70
2017,08,13,09,35,27.40
2017,08,13,09,36,24.20
2017,08,13,09,37,33.80
2017,08,13,09,38,27.40
2017,08,13,09,39,19.30
2017,08,13,09,40,11.30
2017,08,13,09,41,27.40
2017,08,13,09,42,22.50
2017,08,13,09,43,27.40
2017,08,13,09,44,20.90
2017,08,13,09,45,22.50
2017,08,13,09,46,22.50
2017,08,13,09,47,22.50
2017,08,13,09,48,22.50
2017,08,13,09,49,16.10
2017,08,13,09,50,20.90
2017,08,13,09,51,27.40
2017,08,13,09,52,25.70
2017,08,13,09,53,20.90
2017,08,13,09,54,22.50
2017,08,13,09,55,25.70
2017,08,13,09,56,27.40
2017,08,13,09,57,19.30
2017,08,13,09,58,22.50
2017,08,13,09,59,30.60
2017,08,13,10,00,17.70
2017,08,13,10,01,14.50
2017,08,13,10,02,17.70
2017,08,13,10,03,12.90
2017,08,13,10,04,14.50
2017,08,13,10,05,19.30
2017,08,13,10,06,20.90
2017,08,13,10,07,29.00
2017,08,13,10,08,19.30
2017,08,13,10,09,19.30
2017,08,13,10,10,25.70
2017,08,13,10,11,22.50
2017,08,13,10,12,16.10
2017,08,13,10,13,20.90
2017,08,13,10,14,19.30
2017,08,13,10,15,24.20
2017,08,13,10,16,12.90
2017,08,13,10,17,20.90
2017,08,13,10,18,22.50
2017,08,13,10,19,20.90
2017,08,13,10,20,22.50
2017,08,13,10,21,25.70
2017,08,13,10,22,19.30
2017,08,13,10,23,20.90
2017,08,13,10,24,19.30
2017,08,13,10,25,16.10
2017,08,13,10,26,22.50
2017,08,13,10,27,27.40
2017,08,13,10,28,29.00
2017,08,13,10,29,24.20
2017,08,13,10,30,24.20
2017,08,13,10,31,24.20
2017,08,13,10,32,22.50
2017,08,13,10,33,27.40
2017,08,13,10,34,17.70
2017,08,13,10,35,29.00
2017,08,13,10,36,22.50
2017,08,13,10,37,25.70
2017,08,13,10,38,16.10
2017,08,13,10,39,22.50
2017,08,13,10,40,25.70
2017,08,13,10,41,20.90
2017,08,13,10,42,24.20
2017,08,13,10,43,20.90
2017,08,13,10,44,27.40
2017,08,13,10,45,29.00
2017,08,13,10,46,24.20
2017,08,13,10,47,35.40
2017,08,13,10,48,25.70
2017,08,13,10,49,25.70
2017,08,13,10,50,22.50
2017,08,13,10,51,24.20
2017,08,13,10,52,33.80
2017,08,13,10,53,43.50
2017,08,13,10,54,51.50
2017,08,13,10,55,43.50
2017,08,13,10,56,29.00
2017,08,13,10,57,25.70
2017,08,13,10,58,22.50
2017,08,13,10,59,27.40
2017,08,13,11,00,33.80
2017,08,13,11,01,32.20
2017,08,13,11,02,24.20
2017,08,13,11,03,32.20
2017,08,13,11,04,30.60
2017,08,13,11,05,30.60
2017,08,13,11,06,19.30
2017,08,13,11,07,32.20
2017,08,13,11,08,32.20
2017,08,13,11,09,29.00
2017,08,13,11,10,35.40
2017,08,13,11,11,25.70
2017,08,13,11,12,35.40
2017,08,13,11,13,29.00
2017,08,13,11,14,30.60
2017,08,13,11,15,32.20
2017,08,13,11,16,32.20
2017,08,13,11,17,37.00
2017,08,13,11,18,22.50
2017,08,13,11,19,24.20
2017,08,13,11,20,33.80
2017,08,13,11,21,32.20
2017,08,13,11,22,24.20
2017,08,13,11,23,25.70
2017,08,13,11,24,27.40
2017,08,13,11,25,25.70
2017,08,13,11,26,29.00
2017,08,13,11,27,37.00
2017,08,13,11,28,24.20
2017,08,13,11,29,24.20
2017,08,13,11,30,29.00
2017,08,13,11,31,17.70
2017,08,13,11,32,27.40
2017,08,13,11,33,24.20
2017,08,13,11,34,22.50
2017,08,13,11,35,32.20
2017,08,13,11,36,22.50
2017,08,13,11,37,25.70
2017,08,13,11,38,25.70
2017,08,13,11,39,30.60
2017,08,13,11,40,24.20
2017,08,13,11,41,27.40
2017,08,13,11,42,35.40
2017,08,13,11,43,27.40
2017,08,13,11,44,27.40
2017,08,13,11,45,30.60
2017,08,13,11,46,27.40
2017,08,13,11,47,32.20
2017,08,13,11,48,29.00
2017,08,13,11,49,25.70
2017,08,13,11,50,19.30
2017,08,13,11,51,24.20
2017,08,13,11,52,20.90
2017,08,13,11,53,25.70
2017,08,13,11,54,19.30
2017,08,13,11,55,14.50
2017,08,13,11,56,27.40
2017,08,13,11,57,24.20
2017,08,13,11,58,20.90
2017,08,13,11,59,14.50
2017,08,13,12,00,27.40
2017,08,13,12,01,25.70
2017,08,13,12,02,32.20
2017,08,13,12,03,25.70
2017,08,13,12,04,27.40
2017,08,13,12,05,14.50
2017,08,13,12,06,17.70
2017,08,13,12,07,12.90
2017,08,13,12,08,20.90
2017,08,13,12,09,30.60
2017,08,13,12,10,20.90
2017,08,13,12,11,27.40
2017,08,13,12,12,24.20
2017,08,13,12,13,22.50
2017,08,13,12,14,38.60
2017,08,13,12,15,19.30
2017,08,13,12,16,24.20
2017,08,13,12,17,17.70
2017,08,13,12,18,20.90
2017,08,13,12,19,24.20
2017,08,13,12,20,32.20
2017,08,13,12,21,19.30
2017,08,13,12,22,27.40
2017,08,13,12,23,25.70
2017,08,13,12,24,27.40
2017,08,13,12,25,24.20
2017,08,13,12,26,25.70
2017,08,13,12,27,22.50
2017,08,13,12,28,20.90
2017,08,13,12,29,19.30
2017,08,13,12,30,19.30
2017,08,13,12,31,14.50
2017,08,13,12,32,14.50
2017,08,13,12,33,24.20
2017,08,13,12,34,24.20
2017,08,13,12,35,24.20
2017,08,13,12,36,25.70
2017,08,13,12,37,20.90
2017,08,13,12,38,22.50
2017,08,13,12,39,30.60
2017,08,13,12,40,20.90
2017,08,13,12,41,22.50
2017,08,13,12,42,33.80
2017,08,13,12,43,27.40
2017,08,13,12,44,25.70
2017,08,13,12,45,29.00
2017,08,13,12,46,17.70
2017,08,13,12,47,16.10
2017,08,13,12,48,19.30
2017,08,13,12,49,17.70
2017,08,13,12,50,24.20
2017,08,13,12,51,25.70
2017,08,13,12,52,20.90
2017,08,13,12,53,25.70
2017,08,13,12,54,22.50
2017,08,13,12,55,25.70
2017,08,13,12,56,19.30
2017,08,13,12,57,16.10
2017,08,13,12,58,20.90
2017,08,13,12,59,20.90
2017,08,13,13,00,20.90
2017,08,13,13,01,16.10
2017,08,13,13,02,14.50
2017,08,13,13,03,19.30
2017,08,13,13,04,17.70
2017,08,13,13,05,20.90
2017,08,13,13,06,25.70
2017,08,13,13,07,22.50
2017,08,13,13,08,24.20
2017,08,13,13,09,27.40
2017,08,13,13,10,19.30
2017,08,13,13,11,16.10
2017,08,13,13,12,19.30
2017,08,13,13,13,24.20
2017,08,13,13,14,19.30
2017,08,13,13,15,22.50
2017,08,13,13,16,25.70
2017,08,13,13,17,24.20
2017,08,13,13,18,17.70
2017,08,13,13,19,29.00
2017,08,13,13,20,24.20
2017,08,13,13,21,17.70
2017,08,13,13,22,24.20
2017,08,13,13,23,27.40
2017,08,13,13,24,17.70
2017,08,13,13,25,20.90
2017,08,13,13,26,24.20
2017,08,13,13,27,27.40
2017,08,13,13,28,20.90
2017,08,13,13,29,19.30
2017,08,13,13,30,14.50
2017,08,13,13,31,20.90
2017,08,13,13,32,25.70
2017,08,13,13,33,17.70
2017,08,13,13,34,16.10
2017,08,13,13,35,17.70
2017,08,13,13,36,17.70
2017,08,13,13,37,19.30
2017,08,13,13,38,20.90
2017,08,13,13,39,17.70
2017,08,13,13,40,12.90
2017,08,13,13,41,19.30
2017,08,13,13,42,24.20
2017,08,13,13,43,20.90
2017,08,13,13,44,12.90
2017,08,13,13,45,22.50
2017,08,13,13,46,20.90
2017,08,13,13,47,19.30
2017,08,13,13,48,19.30
2017,08,13,13,49,19.30
2017,08,13,13,50,17.70
2017,08,13,13,51,20.90
2017,08,13,13,52,17.70
2017,08,13,13,53,25.70
2017,08,13,13,54,27.40
2017,08,13,13,55,11.30
2017,08,13,13,56,27.40
2017,08,13,13,57,24.20
2017,08,13,13,58,16.10
2017,08,13,13,59,24.20
2017,08,13,14,00,22.50
2017,08,13,14,01,22.50
2017,08,13,14,02,19.30
2017,08,13,14,03,17.70
2017,08,13,14,04,16.10
2017,08,13,14,05,24.20
2017,08,13,14,06,20.90
2017,08,13,14,07,25.70
2017,08,13,14,08,19.30
2017,08,13,14,09,19.30
2017,08,13,14,10,25.70
2017,08,13,14,11,19.30
2017,08,13,14,12,24.20
2017,08,13,14,13,19.30
2017,08,13,14,14,27.40
2017,08,13,14,15,16.10
2017,08,13,14,16,16.10
2017,08,13,14,17,19.30
2017,08,13,14,18,16.10
2017,08,13,14,19,22.50
2017,08,13,14,20,19.30
2017,08,13,14,21,25.70
2017,08,13,14,22,20.90
2017,08,13,14,23,25.70
2017,08,13,14,24,24.20
2017,08,13,14,25,22.50
2017,08,13,14,26,20.90
2017,08,13,14,27,22.50
2017,08,13,14,28,27.40
2017,08,13,14,29,17.70
2017,08,13,14,30,27.40
2017,08,13,14,31,22.50
2017,08,13,14,32,29.00
2017,08,13,14,33,17.70
2017,08,13,14,34,22.50
2017,08,13,14,35,24.20
2017,08,13,14,36,14.50
2017,08,13,14,37,25.70
2017,08,13,14,38,16.10
2017,08,13,14,39,19.30
2017,08,13,14,40,19.30
2017,08,13,14,41,19.30
2017,08,13,14,42,17.70
2017,08,13,14,43,16.10
2017,08,13,14,44,29.00
2017,08,13,14,45,27.40
2017,08,13,14,46,25.70
2017,08,13,14,47,24.20
2017,08,13,14,48,25.70
2017,08,13,14,49,24.20
2017,08,13,14,50,16.10
2017,08,13,14,51,25.70
2017,08,13,14,52,16.10
2017,08,13,14,53,24.20
2017,08,13,14,54,17.70
2017,08,13,14,55,12.90
2017,08,13,14,56,14.50
2017,08,13,14,57,17.70
2017,08,13,14,58,17.70
2017,08,13,14,59,25.70
2017,08,13,15,00,14.50
2017,08,13,15,01,20.90
2017,08,13,15,02,17.70
2017,08,13,15,03,24.20
2017,08,13,15,04,25.70
2017,08,13,15,05,25.70
2017,08,13,15,06,25.70
2017,08,13,15,07,22.50
2017,08,13,15,08,24.20
2017,08,13,15,09,25.70
2017,08,13,15,10,22.50
2017,08,13,15,11,12.90
2017,08,13,15,12,29.00
2017,08,13,15,13,14.50
2017,08,13,15,14,19.30
2017,08,13,15,15,20.90
2017,08,13,15,16,17.70
2017,08,13,15,17,14.50
2017,08,13,15,18,24.20
2017,08,13,15,19,17.70
2017,08,13,15,20,22.50
2017,08,13,15,21,20.90
2017,08,13,15,22,20.90
2017,08,13,15,23,16.10
2017,08,13,15,24,19.30
2017,08,13,15,25,22.50
2017,08,13,15,26,14.50
2017,08,13,15,27,22.50
2017,08,13,15,28,17.70
2017,08,13,15,29,20.90
2017,08,13,15,30,20.90
2017,08,13,15,31,19.30
2017,08,13,15,32,24.20
2017,08,13,15,33,16.10
2017,08,13,15,34,27.40
2017,08,13,15,35,19.30
2017,08,13,15,36,27.40
2017,08,13,15,37,19.30
2017,08,13,15,38,14.50
2017,08,13,15,39,20.90
2017,08,13,15,40,19.30
2017,08,13,15,41,22.50
2017,08,13,15,42,12.90
2017,08,13,15,43,17.70
2017,08,13,15,44,16.10
2017,08,13,15,45,22.50
2017,08,13,15,46,16.10
2017,08,13,15,47,20.90
2017,08,13,15,48,19.30
2017,08,13,15,49,24.20
2017,08,13,15,50,22.50
2017,08,13,15,51,20.90
2017,08,13,15,52,17.70
2017,08,13,15,53,30.60
2017,08,13,15,54,30.60
2017,08,13,15,55,32.20
2017,08,13,15,56,24.20
2017,08,13,15,57,17.70
2017,08,13,15,58,25.70
2017,08,13,15,59,20.90
2017,08,13,16,00,24.20
2017,08,13,16,01,20.90
2017,08,13,16,02,12.90
2017,08,13,16,03,22.50
2017,08,13,16,04,14.50
2017,08,13,16,05,24.20
2017,08,13,16,06,17.70
2017,08,13,16,07,25.70
2017,08,13,16,08,29.00
2017,08,13,16,09,19.30
2017,08,13,16,10,20.90
2017,08,13,16,11,22.50
2017,08,13,16,12,16.10
2017,08,13,16,13,16.10
2017,08,13,16,14,19.30
2017,08,13,16,15,20.90
2017,08,13,16,16,19.30
2017,08,13,16,17,11.30
2017,08,13,16,18,19.30
2017,08,13,16,19,29.00
2017,08,13,16,20,14.50
2017,08,13,16,21,16.10
2017,08,13,16,22,19.30
2017,08,13,16,23,17.70
2017,08,13,16,24,22.50
2017,08,13,16,25,19.30
2017,08,13,16,26,22.50
2017,08,13,16,27,14.50
2017,08,13,16,28,12.90
2017,08,13,16,29,20.90
2017,08,13,16,30,20.90
2017,08,13,16,31,14.50
2017,08,13,16,32,17.70
2017,08,13,16,33,24.20
2017,08,13,16,34,12.90
2017,08,13,16,35,12.90
2017,08,13,16,36,25.70
2017,08,13,16,37,19.30
2017,08,13,16,38,24.20
2017,08,13,16,39,19.30
2017,08,13,16,40,24.20
2017,08,13,16,41,29.00
2017,08,13,16,42,14.50
2017,08,13,16,43,20.90
2017,08,13,16,44,20.90
2017,08,13,16,45,19.30
2017,08,13,16,46,32.20
2017,08,13,16,47,17.70
2017,08,13,16,48,24.20
2017,08,13,16,49,24.20
2017,08,13,16,50,24.20
2017,08,13,16,51,12.90
2017,08,13,16,52,20.90
2017,08,13,16,53,24.20
2017,08,13,16,54,24.20
2017,08,13,16,55,24.20
2017,08,13,16,56,24.20
2017,08,13,16,57,16.10
2017,08,13,16,58,25.70
2017,08,13,16,59,20.90
2017,08,13,17,00,27.40
2017,08,13,17,01,17.70
2017,08,13,17,02,17.70
2017,08,13,17,03,19.30
2017,08,13,17,04,27.40
2017,08,13,17,05,24.20
2017,08,13,17,06,25.70
2017,08,13,17,07,22.50
2017,08,13,17,08,25.70
2017,08,13,17,09,29.00
2017,08,13,17,10,27.40
2017,08,13,17,11,17.70
2017,08,13,17,12,29.00
2017,08,13,17,13,27.40
2017,08,13,17,14,16.10
2017,08,13,17,15,19.30
2017,08,13,17,16,16.10
2017,08,13,17,17,25.70
2017,08,13,17,18,22.50
2017,08,13,17,19,20.90
2017,08,13,17,20,12.90
2017,08,13,17,21,24.20
2017,08,13,17,22,24.20
2017,08,13,17,23,24.20
2017,08,13,17,24,20.90
2017,08,13,17,25,27.40
2017,08,13,17,26,27.40
2017,08,13,17,27,25.70
2017,08,13,17,28,27.40
2017,08,13,17,29,20.90
2017,08,13,17,30,25.70
2017,08,13,17,31,24.20
2017,08,13,17,32,22.50
2017,08,13,17,33,17.70
2017,08,13,17,34,20.90
2017,08,13,17,35,17.70
2017,08,13,17,36,24.20
2017,08,13,17,37,22.50
2017,08,13,17,38,24.20
2017,08,13,17,39,20.90
2017,08,13,17,40,22.50
2017,08,13,17,41,24.20
2017,08,13,17,42,16.10
2017,08,13,17,43,22.50
2017,08,13,17,44,16.10
2017,08,13,17,45,24.20